SKY MUSTER 2 (NBN1B)

Last updated on Thu Sep 10 2026 00:02:58 GMT+0000 (Coordinated Universal Time)

1 41794U 16060B 26252.61933383 -.00000265 00000+0 00000+0 0 9993 2 41794 0.0163 227.7772 0001584 302.8860 185.7687 1.00270426 36368
UTC large
Height (km)
Speed (km/s)
/
Latitude / Longitude
Inclination (degrees)
Orbital Period (minutes)
Azimuth
Elevation
Range (km)
Doppler Factor

Next 0 passes for location: London (51.5072 / 0.1276)

No passes found over London.
SKY MUSTER 2 (NBN1B)